EHI
0 0 0 0 0 0 0 0 0 0 0 0 0 0 0 0 0 0 0 0 0 0 0 0 0 0 0 0 0 0 0 0 0 0 0 0 0 0 0 0 0 0 0
0 0 0 0 0 0 0 0 0 0 0 0 0 0 0 0 0 0 0 0 0 0 0 0 0 0 0 0 0 0 0 0 0 0 0 0 0 0 0 0 0 0 0
0 0 0 0 0 0 0 0 0 0 0 0 0 0 0 0 0 0 0 0 0 0 0 0 0 0 0 0 0 0 0 0 0 0 0 0 0 0 0 0 0 0 0
0 0 0 0 0 0 0 0 0 0 0 0 0 0 0 0 0 0 0 0 0 0 0 0 0 0 0 0 0 0 0 0 0 0 0 0 0 0 0 0 0 0 0
0 0 0 0 0 0 0 0 0 0 0 0 0 0 0 0 0 0 0 0 0 0 0 0 0 0 0 0 0 0 0 0 0 0 0 0 0 0 0 0 0 0 0
0 0 0 0 0 0 0 0 0 0 0 0 0 0 0 0 0 0 0 0 0 0 0 0 0 0 0 0 0 0 0 0 0 0 0 0 0 0 0 0 0 0 0
0 0 0 0 0 0 0 0 0 0 0 0 0 0 0 0 0 0 0 0 0 0 0 0 0 0 0 0 0 0 0 0 0 0 0 0 0 0 0 0 0 0 0
0 0 0 0 0 0 0 0 0 0 0 0 0 0 0 0 0 0 0 0 0 0 0 0 0 0 0 0 0 0 0 0 0 0 0 0 0 0 0 0 0 0 0
0 0 0 0 0 0 0 0 0 0 0 0 0 0 0 0 0 0 0 0 0 0 0 0 0 0 0 0 0 0 0 0 0 0 0 0 0 0 0 0 0 0 0
0 0 0 0 0 0 0 0 0 0 0 0 0 0 0 0 0 0 0 0 0 0 0 0 0 0 0 0 0 0 0 0 0 0 0 0 0 0 0 0 0 0 0
0 0 0 0 0 0 0 0 0 0 0 0 0 0 0 0 0 0 0 0 0 0 0 0 0 0 0 0 0 0 0 0 0 0 0 0 0 0 0 0 0 0 0
0 0 0 0 0 0 0 0 0 0 0 0 0 0 0 0 0 0 0 0 0 0 0 0 0 0 0 0 0 0 0 0 0 0 0 0 0 0 0 0 0 0 0
0 0 0 0 0 0 0 0 0 0 0 0 0 0 0 0 0 0 0 0 0 0 0 0 0 0 0 0 0 0 0 0 0 0 0 0 0 0 0 0 0 0 0
0 0 0 0 0 0 0 0 0 0 0 0 0 0 0 0 0 0 0 0 0 0 0 0 0 0 0 0 0 0 0 0 0 0 0 0 0 0 0 0 0 0 0
0 0 0 0 0 0 0 0 0 0 0 0 0 0 0 0 0 0 0 0 0 0 0 0 0 0 0 0 0 0 0 0 0 0 0 0 0 0 0 0 0 0 0
0 0 0 0 0 0 0 0 0 0 0 0 0 0 0 0 0 0 0 0 0 0 0 0 0 0 0 0 0 0 0 0 0 0 0 0 0 0 0 0 0 0 0
0 0 0 0 0 0 0 0 0 0 0 0 0 0 0 0 0 0 0 0 0 0 0 0 0 0 0 0 0 0 0 0 0 0 0 0 0 0 0 0 0 0 0
0 0 0 0 0 0 0 0 0 0 0 0 0 0 0 0 0 0 0 0 0 0 0 0 0 0 0 0 0 0 0 0 0 0 0 0 0 0 0 0 0 0 0
0 0 0 0 0 0 0 0 0 0 0 0 0 0 0 0 0 0 0 0 0 0 0 0 0 0 0 0 0 0 0 0 0 0 0 0 0 0 0 0 0 0 0
0 0 0 0 0 0 0 0 0 0 0 0 0 0 0 0 0 0 0 0 0 0 0 0 0 0 0 0 0 0 0 0 0 0 0 0 0 0 0 0 0 0 0
0 0 0 0 0 0 0 0 0 0 0 0 0 0 0 0 0 0 0 0 0 0 0 0 0 0 0 0 0 0 0 0 0 0 0 0 0 0 0 0 0 0 0
0 0 0 0 0 0 0 0 0 0 0 0 0 0 0 0 0 0 0 0 0 0 0 0 0 0 0 0 0 0 0 0 0 0 0 0 0 0 0 0 0 0 0
0 0 0 0 0 0 0 0 0 0 0 0 0 0 0 0 0 0 0 0 0 0 0 0 0 0 0 0 0 0 0 0 0 0 0 0 0 0 0 0 0 0 0
0 0 0 0 0 0 0 0 0 0 0 0 0 0 0 0 0 0 0 0 0 0 0 0 0 0 0 0 0 0 0 0 0 0 0 0 0 0 0 0 0 0 0
0 0 0 0 0 0 0 0 0 0 0 0 0 0 0 0 0 0 0 0 0 0 0 0 0 0 0 0 0 0 0 0 0 0 0 0 0 0 0 0 0 0 0
0 0 0 0 0 0 0 0 0 0 0 0 0 0 0 0 0 0 0 0 0 0 0 0 0 0 0 0 0 0 0 0 0 0 0 0 0 0 0 0 0 0 0
Wind_Speed
7 7 6 6 5 5 5 5 6 6 6 6 6 6 7 7 7 5 4 5 8 10 11 13 14 14 12 12 13 13 13 13 13 13 14 14 15 16 16 17 16 16 16
8 8 8 7 7 7 7 7 7 6 6 6 7 8 8 8 8 8 6 6 9 11 13 15 16 16 16 15 15 15 15 16 16 16 16 16 17 18 18 18 18 18 19
11 9 9 9 8 8 9 8 8 7 7 7 8 9 8 9 9 9 9 7 8 11 15 17 18 18 18 18 18 18 18 18 18 18 18 19 19 20 21 21 21 21 21
14 11 10 10 10 9 8 8 8 8 8 8 8 8 8 8 10 11 10 9 8 8 12 17 20 20 20 20 21 20 20 20 19 20 21 21 22 23 23 23 23 24 24
17 14 11 10 11 9 9 9 8 9 8 9 9 9 9 9 11 11 12 12 12 10 10 12 16 18 20 21 22 22 21 21 21 21 22 23 23 24 25 26 26 26 26
17 15 12 13 12 10 10 10 11 10 10 9 8 9 10 10 11 11 12 13 12 12 12 12 10 11 17 19 20 21 22 22 23 23 23 24 24 25 27 28 28 29 29
17 16 13 14 13 12 13 13 12 13 11 9 7 9 11 12 13 12 12 12 12 11 11 11 9 8 7 11 15 18 20 22 22 23 22 22 23 24 26 27 29 30 30
18 15 16 13 13 12 14 15 14 11 11 10 8 6 7 11 11 9 9 9 10 8 8 8 8 7 6 5 7 12 16 18 19 19 18 19 19 20 22 24 27 30 29
17 17 17 15 14 13 13 15 15 16 13 12 12 10 7 8 3 5 7 7 7 7 8 7 8 7 7 7 6 7 11 14 14 14 16 17 17 19 21 23 25 26 24
17 18 18 17 15 13 14 14 15 14 14 10 9 11 12 9 7 8 7 7 8 8 9 8 7 7 7 6 6 6 8 10 12 13 15 16 18 19 20 21 20 17 15
15 17 17 17 16 14 15 16 15 15 13 12 10 9 10 10 10 11 11 9 9 9 9 9 7 6 6 5 5 6 8 11 12 12 14 16 17 15 13 14 14 15 16
12 16 17 17 17 16 16 16 15 15 13 12 11 10 10 10 10 10 12 12 12 10 9 8 8 7 5 4 5 4 6 9 9 10 12 12 9 8 8 10 13 14 16
11 13 16 16 16 16 16 15 15 14 14 13 13 11 11 12 10 10 12 11 12 9 9 8 6 6 4 3 3 5 5 6 8 8 6 3 3 6 9 12 15 17 19
9 11 13 15 16 16 16 15 12 13 13 13 14 14 11 11 11 11 11 9 10 10 10 10 5 6 4 3 4 7 5 7 7 4 3 1 2 6 10 13 16 17 19
10 12 13 15 17 17 18 16 13 15 15 14 13 14 12 11 11 10 10 10 11 11 12 12 8 6 4 5 6 5 4 5 4 5 2 1 4 8 10 13 15 16 17
13 14 14 16 17 17 17 15 13 15 14 13 10 13 12 11 10 10 10 10 11 12 12 11 9 5 5 4 5 4 4 6 5 3 2 3 6 8 10 12 14 15 15
14 15 16 16 18 18 18 17 17 17 17 15 14 14 15 14 11 10 10 9 9 9 11 12 8 5 6 6 5 4 4 3 3 3 1 2 6 7 10 11 12 13 14
13 14 15 17 18 18 18 19 18 17 18 17 16 16 16 14 14 12 10 11 11 11 11 12 9 6 6 5 5 6 5 3 2 2 2 4 5 8 9 9 11 13 14
13 14 15 17 18 18 18 19 19 19 19 19 18 18 18 17 16 13 12 11 10 9 10 10 7 5 3 3 5 6 6 4 4 2 4 4 5 9 11 11 12 12 13
13 14 15 16 17 18 18 17 18 18 18 19 18 18 18 18 19 16 13 13 10 9 8 8 6 4 3 3 5 8 7 6 5 3 3 4 6 11 12 11 12 11 13
15 14 15 16 17 16 15 16 17 18 18 18 17 17 18 19 20 17 14 13 12 11 9 8 5 4 5 5 7 7 6 4 5 3 3 4 5 7 7 9 9 10 12
18 17 16 16 17 13 15 16 16 17 18 17 17 17 17 18 19 20 21 16 14 13 13 10 8 7 8 7 7 7 5 4 4 3 3 6 5 7 7 7 8 11 14
18 19 18 18 18 17 16 16 18 18 20 18 16 15 13 13 16 17 19 15 13 13 10 10 10 9 8 9 11 9 7 6 4 2 3 6 5 7 8 8 11 13 15
17 18 18 18 18 17 17 16 17 18 19 19 17 15 15 15 15 18 13 12 10 8 6 7 7 8 7 10 10 9 8 6 4 3 3 5 5 7 8 8 10 12 13
17 17 17 18 18 18 18 16 14 15 16 17 17 17 16 17 18 20 14 12 11 7 5 11 14 15 16 16 13 10 9 7 5 5 4 5 7 8 9 7 6 8 13
16 16 17 17 18 18 18 16 13 12 16 15 14 14 16 18 16 22 17 15 14 13 12 13 15 15 15 13 12 8 8 7 4 4 5 4 5 6 7 4 5 7 9
Wind_Direction
212 209 205 201 204 211 220 224 234 237 233 232 229 238 248 250 249 251 253 213 244 259 267 271 273 272 266 264 266 268 267 267 266 268 268 268 267 267 267 266 269 271 273
218 213 212 213 216 218 223 229 237 243 245 243 240 238 244 247 250 251 255 238 224 243 251 257 263 268 268 266 263 264 265 265 267 267 268 268 268 269 268 269 270 271 274
221 218 221 220 221 224 226 230 238 242 246 246 249 252 253 254 250 250 251 253 237 230 239 249 253 257 260 263 263 262 263 264 266 266 266 267 266 266 268 269 271 272 273
220 222 224 229 229 227 229 233 239 241 243 247 248 249 251 256 258 255 250 248 249 246 233 238 245 249 252 257 261 263 264 265 266 269 270 269 268 268 267 268 269 269 269
219 220 224 227 231 233 233 236 240 244 248 248 254 257 255 254 256 256 253 250 246 245 249 240 232 243 249 253 258 262 266 268 268 268 270 271 271 272 272 269 268 268 269
221 222 227 227 225 229 231 230 237 238 241 251 256 260 263 262 261 258 255 251 249 246 248 254 247 242 240 248 257 262 265 267 269 270 271 272 273 273 273 273 272 272 272
222 220 224 227 225 227 230 230 231 236 236 237 251 260 262 259 256 253 251 251 252 249 251 255 258 264 253 240 247 255 261 266 270 273 275 277 278 278 278 277 276 274 273
224 220 222 224 223 225 231 232 233 236 240 232 230 248 269 267 250 249 250 248 248 244 243 248 252 253 258 259 249 246 254 262 269 276 278 278 280 283 284 284 283 282 284
228 226 226 226 225 224 228 227 227 227 230 226 221 225 231 246 259 223 225 231 234 234 237 248 263 254 248 250 253 252 249 259 271 275 275 277 281 286 288 290 290 290 292
226 225 226 226 225 222 226 226 224 223 226 226 216 224 239 267 261 266 242 239 249 246 249 259 253 251 250 254 254 260 258 261 264 269 278 285 291 294 297 298 302 315 317
223 225 224 224 224 224 226 226 222 220 220 216 214 210 220 231 237 252 258 250 246 248 256 257 259 258 256 247 245 242 236 251 261 272 285 292 297 306 323 326 327 325 322
220 221 220 220 222 223 226 227 225 222 218 214 217 216 215 218 214 219 239 251 253 248 248 251 254 257 246 238 228 220 228 245 262 273 281 293 321 347 334 323 319 316 313
224 221 219 220 222 224 226 227 225 221 215 211 215 219 223 229 223 213 227 241 251 253 253 250 237 247 234 221 203 190 207 234 244 253 275 313 5 332 327 321 318 318 316
252 241 231 233 234 231 230 228 226 223 219 217 217 217 220 226 227 220 218 224 243 251 248 248 224 220 219 185 152 156 187 210 210 183 151 147 314 322 319 316 318 319 315
263 257 244 235 234 232 231 228 223 225 221 222 220 220 220 222 224 223 219 214 225 245 251 247 241 214 174 157 156 175 199 162 159 137 130 336 327 320 316 315 313 311 308
266 261 253 248 243 240 237 237 236 234 229 223 218 223 224 224 223 219 216 217 220 233 250 250 243 212 154 148 142 173 151 144 114 101 39 339 327 313 310 306 307 305 303
274 267 263 257 251 245 238 231 233 234 232 228 220 220 224 221 221 217 215 214 217 218 238 248 244 203 177 174 159 165 164 207 160 103 335 296 295 295 302 302 304 304 303
289 281 274 267 262 255 247 239 235 234 235 231 223 219 221 218 222 220 217 217 216 212 221 237 228 197 198 183 186 188 202 212 232 159 256 284 281 291 289 285 295 295 300
302 291 280 271 266 262 256 249 242 236 233 231 228 223 222 216 217 216 217 220 218 211 212 224 221 187 177 170 200 209 209 224 240 220 252 244 266 280 279 278 287 291 297
311 305 294 284 275 269 262 254 248 241 239 236 231 228 225 219 219 211 212 217 211 205 203 217 206 170 169 175 209 222 215 216 244 244 246 251 262 271 271 270 279 285 287
307 305 300 292 283 272 260 254 252 249 243 241 239 234 229 224 222 211 203 209 206 204 194 189 182 174 181 185 202 203 211 207 238 237 261 256 255 261 254 261 266 274 283
305 302 298 295 290 279 261 245 243 251 249 240 239 237 233 227 221 210 206 207 208 203 193 183 176 192 193 195 185 177 180 201 231 180 258 272 248 257 262 267 283 284 277
306 302 300 301 299 292 277 253 233 242 250 245 235 234 235 228 223 218 214 210 212 216 205 184 177 186 176 181 169 170 180 205 221 164 248 272 241 253 267 271 272 267 264
309 305 303 305 303 296 287 266 246 248 253 253 247 235 230 230 220 215 201 191 191 183 191 179 172 157 151 154 150 154 165 178 199 202 218 264 258 268 283 277 262 255 265
308 306 305 304 302 300 299 284 266 269 263 259 252 240 228 231 218 202 189 164 143 128 111 113 112 121 130 134 136 135 148 171 203 203 196 265 286 301 292 273 246 252 278
312 309 305 304 303 304 305 298 290 288 280 272 258 247 234 232 207 188 182 164 160 153 137 118 114 119 124 132 140 148 160 167 187 212 178 238 296 324 307 284 283 292 291